Wind_Speed
19 19 18 18 17 18 16 19 21 23 26 29 29 31 32 33 26 21 26 30 28 23 21 21 19 19 19 20 19 19 21 20 20 18 17 17 17 16 16 15 15 15 13 12 11
20 19 19 16 17 18 18 20 20 23 25 29 30 31 32 32 27 22 23 26 28 27 21 19 17 17 17 18 19 21 23 21 19 18 19 18 17 16 16 16 16 15 13 10 11
22 20 19 18 18 20 19 19 21 23 25 29 32 31 31 32 28 23 21 23 26 26 24 19 16 15 15 15 16 18 20 22 24 22 16 16 16 16 15 15 14 13 13 15 11
25 23 21 20 21 22 22 21 24 24 26 29 32 31 30 31 28 22 21 21 23 25 24 20 16 13 12 13 13 15 17 18 19 20 18 18 17 17 17 17 17 18 15 12 16
26 25 24 23 23 24 25 25 26 26 27 30 31 31 30 31 30 25 19 20 22 23 23 22 18 16 13 11 12 14 14 16 16 16 16 17 18 19 20 19 19 18 18 17 15
29 28 27 25 26 27 27 26 27 28 29 31 31 31 31 31 31 27 24 22 22 23 21 21 19 16 15 15 14 15 16 16 16 15 17 18 20 22 23 23 22 21 21 19 17
30 29 28 27 28 28 28 28 29 31 33 32 33 33 33 33 31 27 23 24 25 24 21 21 21 19 16 16 16 15 16 16 15 12 14 17 21 24 24 24 24 23 23 20 17
30 30 29 29 29 29 30 31 32 35 35 34 35 36 34 34 34 31 25 25 25 25 24 24 23 22 19 17 17 19 17 17 16 15 14 14 17 19 23 25 25 25 24 24 22
31 31 29 32 32 33 33 34 35 37 38 38 38 37 37 37 36 35 30 27 27 27 26 26 27 26 25 21 19 20 22 21 20 20 20 18 18 18 20 21 24 24 25 26 25
32 32 33 33 34 36 37 38 39 40 41 42 42 41 40 40 39 36 33 30 29 28 28 29 30 28 26 25 25 23 24 23 23 22 24 24 23 23 24 24 23 25 24 26 25
37 36 37 37 38 39 40 40 41 42 44 44 45 44 44 43 41 38 35 33 31 30 30 32 32 30 29 28 29 29 29 27 26 25 26 26 26 26 27 27 29 31 32 31 30
39 41 41 42 43 44 43 43 45 46 47 48 48 47 46 46 42 39 38 36 34 32 34 34 33 32 30 30 31 32 31 31 30 30 30 29 30 29 30 30 31 33 32 33 32
45 47 47 47 47 47 48 49 50 50 50 49 50 51 49 47 45 42 41 39 37 35 36 36 34 32 31 31 32 34 33 33 32 32 32 32 30 32 32 34 35 35 36 35 36
51 52 51 51 52 51 52 52 52 54 54 53 53 52 51 49 48 46 45 44 41 39 37 36 35 33 32 32 33 33 33 32 32 33 33 33 34 33 33 35 37 38 40 41 41
55 55 56 56 55 55 55 55 55 55 54 54 54 53 53 52 52 51 49 48 44 40 39 37 35 33 33 33 32 32 34 34 34 34 34 35 36 33 35 36 39 40 41 41 40
61 60 60 60 60 59 59 57 56 58 57 57 58 57 57 56 54 53 52 48 43 39 38 35 34 33 33 32 32 32 32 34 35 37 35 38 39 38 40 40 41 42 43 42 41
65 65 63 62 63 62 61 60 60 60 60 61 61 59 57 56 53 51 49 46 41 39 38 35 33 33 32 31 30 30 33 34 36 37 40 41 44 45 43 45 46 46 45 45 46
67 67 66 65 63 62 61 62 61 61 60 59 59 57 55 54 52 48 44 40 39 38 36 36 34 33 31 30 30 31 34 36 38 41 44 45 48 46 47 48 48 48 48 46 46
68 69 67 67 65 64 65 62 59 59 58 58 57 56 53 49 46 43 41 38 39 39 38 38 33 32 32 32 34 34 39 42 44 44 47 48 51 50 51 50 50 51 51 51 51
68 68 70 69 68 66 62 60 58 59 57 57 55 52 48 45 42 40 38 37 38 40 39 37 36 36 36 38 40 43 45 46 47 48 49 52 52 53 53 49 51 53 53 55 54
69 68 68 67 66 65 63 61 59 59 55 53 49 47 45 44 43 41 38 37 38 38 40 41 42 37 44 45 48 49 49 52 52 51 52 52 54 52 53 53 55 56 56 59 60
70 68 68 67 66 66 64 62 59 56 54 51 50 50 51 51 49 47 45 44 43 43 44 46 48 51 50 51 53 54 55 55 54 54 52 53 55 55 59 55 56 58 61 63 64
71 69 70 68 67 66 65 61 56 56 55 53 54 54 54 53 52 51 51 50 49 48 48 49 52 55 57 57 56 57 58 59 57 56 58 57 60 58 56 58 59 61 65 65 66
71 67 66 64 62 62 61 60 60 59 58 58 58 58 55 54 53 52 52 51 50 49 49 49 52 52 55 56 56 57 58 60 61 60 59 62 60 62 63 64 64 64 66 66 69
70 68 68 67 67 66 65 65 65 62 61 61 61 59 58 58 58 58 57 57 56 55 53 54 53 54 56 57 59 60 60 62 62 63 65 65 66 66 66 65 65 67 70 71 71
76 74 72 70 70 70 70 68 68 67 67 65 64 63 64 64 64 65 65 62 61 59 59 59 60 59 60 63 64 63 65 66 67 68 69 69 68 68 70 68 68 71 72 73 70
79 79 77 75 75 75 74 74 74 73 72 72 72 71 70 68 69 69 69 68 67 66 65 67 67 66 67 69 71 70 69 71 72 72 73 73 72 73 73 73 73 74 74 69 67
Wind_Direction
244 256 265 272 282 291 298 309 321 326 330 334 342 355 5 8 10 11 19 18 19 21 20 26 35 36 39 42 44 39 46 47 48 42 37 30 29 24 16 10 7 4 349 320 285
245 255 261 268 278 285 294 305 312 321 325 328 335 348 1 7 9 6 7 15 16 16 16 20 27 27 32 32 38 45 51 52 51 45 42 37 33 27 18 1 359 2 5 345 326
245 254 258 263 273 281 290 297 307 313 319 323 328 343 355 3 6 3 3 8 13 11 10 8 14 14 14 19 27 35 45 52 53 53 44 34 30 23 19 10 5 356 355 354 346
246 250 256 262 274 279 285 292 300 306 311 316 322 335 349 357 1 2 357 360 6 9 3 1 355 1 0 3 8 18 21 31 39 42 35 31 23 19 16 14 15 8 4 357 353
246 250 255 262 273 279 283 290 293 300 305 310 318 329 341 350 352 352 356 353 356 2 357 354 347 339 341 339 340 342 350 356 12 18 14 23 21 17 13 10 12 10 1 3 358
245 250 259 266 270 276 283 286 288 294 301 307 314 324 333 341 345 345 343 345 345 346 351 345 344 331 324 326 326 322 327 334 345 9 356 3 7 6 10 4 4 4 4 359 350
248 253 262 266 271 274 278 282 285 290 296 303 309 317 326 331 337 339 334 335 337 339 341 339 337 329 318 313 314 320 315 320 326 348 357 357 0 356 359 0 357 353 353 355 346
253 257 260 265 268 273 276 280 283 288 294 299 305 313 322 325 329 330 326 323 328 330 330 329 327 323 319 309 304 306 305 307 316 327 337 343 347 349 350 351 352 345 344 345 346
248 254 259 262 266 270 273 277 281 288 292 297 303 309 315 319 322 324 320 320 321 324 323 324 322 320 315 307 299 295 294 296 304 313 314 321 328 333 333 339 345 341 334 337 339
248 254 258 263 267 270 272 277 282 286 292 297 302 306 310 313 316 318 317 316 316 320 316 316 318 316 310 302 297 293 290 291 293 303 305 310 315 320 320 321 327 332 337 334 339
250 254 258 261 264 269 274 277 282 286 291 296 301 303 306 309 311 313 312 313 313 316 315 313 315 314 304 297 295 294 294 295 294 293 294 296 301 307 311 319 324 331 335 334 333
251 254 258 264 268 272 275 278 281 285 291 295 298 301 303 304 306 305 309 310 310 311 311 313 312 307 298 290 290 290 294 297 297 297 297 297 299 302 307 316 320 324 327 326 323
253 258 262 266 270 273 276 278 282 286 290 292 295 298 299 301 302 304 305 305 306 307 309 310 307 302 293 288 287 289 292 296 299 300 302 299 301 305 308 313 315 319 322 320 317
255 260 264 267 270 273 276 279 283 286 289 291 292 292 294 298 300 300 301 302 304 305 305 304 302 298 288 282 283 287 291 294 296 298 299 299 301 308 308 310 314 316 318 317 315
258 262 266 269 270 272 277 280 284 286 289 289 290 291 294 296 297 297 298 300 302 302 299 300 299 295 286 282 285 287 289 292 293 296 300 304 304 304 304 307 310 312 311 310 308
260 263 266 268 271 274 277 280 282 285 287 288 289 290 292 294 295 296 296 296 297 296 294 295 294 290 285 280 281 284 287 290 293 295 299 300 302 303 304 306 307 307 304 304 303
261 264 266 268 270 272 275 278 281 283 284 287 287 288 290 291 291 292 292 292 291 290 289 289 288 286 282 280 283 286 288 289 290 295 300 301 301 302 306 307 305 303 302 304 303
260 264 266 267 269 272 275 277 279 281 284 285 286 287 289 289 289 289 287 286 286 284 284 284 285 285 285 285 285 286 285 287 291 294 297 298 299 303 305 303 303 302 303 303 303
260 263 266 269 270 271 273 276 278 280 280 281 282 285 285 286 287 287 285 283 281 283 283 284 285 282 283 285 285 283 286 289 291 293 294 297 300 302 301 304 302 302 302 301 298
261 264 266 267 269 269 271 272 274 275 275 277 280 283 285 286 287 287 285 281 281 282 283 280 281 281 281 282 283 285 288 289 290 294 297 298 296 298 300 301 300 301 301 301 299
259 260 263 265 266 268 269 270 271 273 275 276 278 279 282 284 286 285 283 281 280 278 279 281 283 283 285 286 287 288 290 290 293 295 294 294 294 296 300 300 303 303 303 303 303
260 260 262 263 265 266 268 269 270 270 271 273 275 278 279 279 279 279 280 280 280 280 280 282 284 286 284 285 287 289 289 290 290 292 291 292 295 299 301 303 302 304 304 305 305
261 263 265 265 264 265 266 267 266 267 269 271 274 276 277 278 279 279 279 279 279 280 282 283 284 285 287 287 289 289 290 292 295 296 296 298 297 298 298 299 301 304 305 306 305
260 261 262 262 263 263 264 266 267 267 270 272 274 276 276 277 278 280 280 280 280 281 283 283 284 284 286 289 289 288 290 292 293 294 295 295 298 299 300 301 302 304 307 307 305
259 259 261 263 265 265 266 267 268 270 271 272 274 275 277 278 281 282 282 282 282 283 284 284 283 284 285 287 288 290 290 291 292 293 294 295 297 298 299 300 303 307 310 310 308
258 259 260 261 263 265 265 267 268 270 271 271 271 273 274 276 279 280 281 281 282 282 283 284 285 286 286 286 287 289 290 291 292 292 295 295 296 299 299 302 305 309 309 310 307
258 258 260 261 262 264 265 265 267 268 269 271 271 272 273 276 276 277 278 280 282 282 283 284 285 286 286 287 287 287 289 289 291 292 293 295 297 299 301 305 307 309 309 309 307
Height
11015 11016 11016 11017 11017 11017 11017 11016 11016 11014 11012 11011 11010 11009 11006 11002 10998 10995 10993 10990 10986 10984 10982 10980 10978 10975 10972 10970 10968 10966 10965 10962 10960 10957 10955 10953 10952 10951 10949 10948 10945 10943 10941 10939 10937
11012 11013 11014 11014 11015 11015 11015 11015 11014 11013 11011 11009 11008 11008 11005 11001 10998 10995 10993 10991 10987 10984 10982 10981 10979 10976 10974 10972 10970 10969 10967 10964 10962 10959 10957 10955 10953 10951 10948 10945 10943 10941 10939 10937 10934
11009 11011 11011 11012 11012 11012 11013 11013 11012 11011 11009 11008 11006 11006 11005 11001 10998 10995 10993 10990 10988 10984 10982 10980 10980 10977 10975 10973 10971 10970 10968 10966 10963 10960 10957 10954 10953 10951 10949 10947 10944 10941 10940 10937 10933
11006 11007 11008 11009 11010 11010 11010 11010 11009 11009 11007 11006 11004 11004 11002 11000 10998 10995 10992 10990 10988 10985 10982 10980 10978 10978 10976 10974 10971 10970 10968 10967 10964 10961 10958 10956 10953 10951 10948 10946 10943 10939 10938 10935 10932
11002 11003 11004 11006 11007 11006 11006 11007 11006 11006 11005 11004 11002 11001 11000 10998 10995 10993 10991 10989 10986 10985 10982 10979 10977 10976 10975 10974 10972 10969 10967 10964 10963 10960 10958 10955 10952 10950 10947 10944 10941 10939 10935 10933 10930
10997 10999 11000 11002 11003 11003 11002 11003 11002 11002 11001 11001 11000 10999 10998 10996 10994 10991 10988 10987 10985 10983 10981 10979 10976 10974 10972 10971 10970 10968 10966 10963 10961 10959 10955 10952 10949 10946 10944 10941 10938 10936 10933 10930 10927
10992 10995 10996 10997 10998 10999 10998 10998 10998 10998 10998 10998 10997 10996 10995 10993 10992 10989 10986 10984 10981 10980 10978 10976 10974 10972 10970 10969 10967 10966 10965 10963 10961 10958 10956 10952 10948 10943 10941 10939 10937 10933 10930 10928 10925
10988 10990 10992 10992 10993 10994 10994 10994 10993 10993 10993 10993 10992 10992 10991 10990 10988 10986 10984 10981 10979 10977 10975 10972 10970 10968 10967 10966 10965 10963 10962 10961 10959 10956 10955 10952 10948 10944 10939 10935 10933 10931 10928 10925 10923
10983 10985 10986 10987 10988 10988 10989 10988 10988 10988 10987 10987 10987 10987 10986 10985 10983 10981 10979 10977 10975 10972 10970 10968 10966 10965 10963 10962 10961 10960 10958 10957 10955 10953 10951 10949 10947 10944 10940 10936 10932 10929 10925 10923 10920
10978 10979 10980 10982 10982 10982 10982 10982 10982 10981 10981 10981 10981 10980 10979 10979 10977 10975 10973 10971 10970 10968 10965 10962 10961 10959 10957 10956 10956 10955 10954 10953 10951 10950 10946 10944 10942 10939 10936 10933 10931 10928 10925 10921 10917
10971 10972 10973 10975 10976 10976 10976 10976 10976 10975 10974 10974 10973 10973 10972 10971 10970 10969 10967 10965 10964 10962 10959 10956 10955 10953 10951 10949 10948 10948 10947 10946 10945 10944 10942 10939 10937 10934 10931 10928 10924 10920 10916 10913 10910
10963 10965 10967 10967 10969 10969 10969 10969 10969 10968 10968 10967 10966 10965 10964 10963 10962 10961 10960 10958 10957 10955 10953 10950 10948 10947 10944 10942 10941 10941 10940 10939 10938 10936 10934 10932 10930 10928 10924 10921 10918 10915 10912 10908 10906
10955 10956 10959 10960 10960 10961 10962 10961 10961 10961 10961 10960 10959 10957 10956 10955 10954 10953 10951 10950 10949 10948 10945 10943 10941 10939 10938 10935 10934 10933 10934 10932 10930 10928 10926 10924 10923 10920 10917 10914 10911 10907 10904 10902 10899
10947 10948 10949 10952 10953 10952 10953 10953 10953 10953 10951 10951 10950 10948 10946 10946 10945 10944 10942 10940 10940 10939 10937 10935 10933 10932 10930 10928 10927 10927 10926 10925 10923 10921 10919 10916 10913 10913 10911 10908 10904 10900 10896 10893 10888
10937 10940 10940 10942 10943 10944 10944 10943 10943 10942 10942 10940 10939 10938 10938 10936 10935 10933 10932 10931 10930 10929 10927 10926 10926 10924 10923 10922 10921 10920 10919 10917 10916 10914 10912 10909 10905 10906 10903 10900 10897 10893 10890 10886 10882
10925 10929 10930 10931 10933 10934 10933 10933 10933 10931 10930 10929 10928 10928 10927 10926 10924 10922 10920 10920 10920 10919 10917 10917 10917 10916 10915 10915 10915 10914 10913 10910 10907 10905 10905 10901 10899 10897 10894 10892 10889 10886 10882 10878 10875
10915 10915 10919 10921 10921 10922 10923 10923 10922 10921 10919 10918 10917 10917 10916 10915 10914 10912 10910 10909 10908 10908 10907 10907 10908 10908 10907 10908 10907 10907 10905 10902 10900 10898 10895 10893 10889 10886 10885 10881 10877 10874 10871 10867 10862
10905 10904 10905 10907 10910 10911 10911 10911 10911 10910 10908 10907 10905 10905 10904 10903 10902 10901 10900 10899 10898 10897 10898 10898 10898 10898 10899 10900 10900 10900 10897 10895 10893 10890 10886 10883 10877 10878 10874 10870 10865 10860 10857 10856 10851
10893 10892 10893 10893 10895 10897 10898 10898 10899 10898 10897 10895 10894 10893 10892 10892 10891 10890 10890 10890 10888 10887 10889 10889 10891 10892 10892 10891 10890 10891 10887 10885 10882 10881 10875 10872 10867 10864 10860 10858 10852 10848 10845 10842 10838
10879 10880 10879 10880 10880 10882 10884 10885 10886 10885 10884 10883 10883 10881 10881 10880 10881 10880 10881 10880 10880 10878 10878 10880 10881 10881 10882 10881 10880 10878 10876 10874 10871 10868 10865 10861 10856 10851 10849 10847 10840 10835 10831 10826 10822
10861 10865 10864 10864 10865 10866 10869 10872 10873 10871 10872 10872 10871 10872 10871 10870 10870 10871 10871 10871 10871 10870 10869 10869 10868 10873 10868 10869 10866 10865 10862 10857 10857 10857 10853 10850 10842 10842 10837 10832 10826 10820 10816 10809 10803
10843 10848 10848 10850 10851 10851 10853 10856 10858 10857 10859 10859 10859 10860 10860 10860 10861 10860 10861 10861 10861 10861 10861 10859 10858 10855 10856 10855 10851 10850 10847 10846 10845 10844 10842 10837 10830 10827 10819 10818 10812 10806 10799 10794 10787
10827 10830 10832 10834 10834 10836 10837 10839 10843 10843 10844 10846 10847 10846 10847 10847 10847 10848 10848 10849 10850 10850 10850 10850 10847 10843 10840 10839 10839 10836 10833 10829 10829 10827 10823 10820 10815 10813 10811 10805 10801 10794 10785 10780 10771
10810 10813 10814 10817 10819 10820 10823 10824 10826 10830 10831 10831 10833 10833 10833 10833 10833 10834 10834 10834 10835 10837 10837 10837 10834 10831 10827 10826 10825 10823 10820 10817 10815 10812 10811 10803 10804 10797 10793 10788 10784 10778 10772 10765 10755
10792 10797 10798 10802 10803 10804 10807 10809 10809 10813 10815 10817 10818 10819 10818 10818 10817 10818 10819 10820 10820 10823 10823 10822 10821 10820 10816 10813 10810 10808 10804 10802 10801 10798 10794 10792 10785 10783 10777 10775 10769 10760 10753 10744 10734
10774 10778 10781 10785 10786 10786 10789 10793 10793 10796 10797 10800 10801 10803 10802 10802 10802 10801 10799 10804 10805 10806 10806 10805 10804 10804 10801 10798 10796 10794 10788 10786 10783 10780 10777 10773 10769 10766 10759 10758 10753 10745 10735 10726 10715
10755 10758 10762 10767 10768 10768 10772 10772 10774 10777 10781 10782 10782 10785 10786 10789 10785 10785 10785 10785 10787 10788 10790 10787 10787 10787 10784 10780 10778 10776 10772 10768 10767 10764 10760 10755 10750 10746 10742 10739 10736 10726 10718 10711 10698